Tracking 25963 objects as of 13-Aug-2022
HD Live streaming from Space Station
objects crossing your sky now

STARLINK-3458

Track STARLINK-3458 now!
10-day predictions
STARLINK-3458 is classified as:


NORAD ID: 51758
Int'l Code: 2022-016AW
Perigee: 545.8 km
Apogee: 547.9 km
Inclination: 53.2 °
Period: 95.4 minutes
Semi major axis: 6917 km
RCS: Unknown
Launch date: February 21, 2022
Source: United States (US)
Launch site: AIR FORCE EASTERN TEST RANGE (AFETR)
aabbcc
Your satellite tracking list
Your tracking list is empty




NASA's NSSDC Master Catalog

Two Line Element Set (TLE):
1 51758U 22016AW  22224.91668981 -.00005888  00000-0 -35197-3 0  9996
2 51758  53.2182  46.4622 0001554  62.0026 242.1651 15.08855463 27863
Source of the keplerian elements: AFSPC